Regional Weather Roundup
Issued by NWS Boston, MA

Home | Current Version | Previous Version | Text Only | Print | Product List | Glossary On
Versions: 1 2 3 4 5 6 7 8 9 10 11 12 13 14 15 16 17 18 19 20 21 22 23 24 25 26 27 28 29 30 31 32 33 34 35 36 37 38 39 40 41 42 43 44 45 46 47 48 49 50
000
ASUS41 KBOX 221310
RWRBOX

REGIONAL WEATHER ROUNDUP
NATIONAL WEATHER SERVICE TAUNTON MA
900 AM EDT TUE JUL 22 2014

NOTE:  "FAIR" INDICATES FEW OR NO CLOUDS BELOW 12,000 FEET WITH NO
SIGNIFICANT WEATHER AND/OR OBSTRUCTIONS TO VISIBILITY.  THE FOLLOWING
OBSERVATION LOCATIONS DO NOT REPORT PRESENT WEATHER...PROVINCETOWN...
SMITHFIELD...BLOCK ISLAND...KEENE...AND OXFORD.

MAZALL-221400-
EASTERN MASSACHUSETTS

CITY           SKY/WX    TMP DP  RH WIND       PRES   REMARKS
BOSTON         MOSUNNY   75  64  68 W5        30.13F
BEVERLY        SUNNY     74  65  73 SW5       30.13F
LAWRENCE       SUNNY     73  63  70 SW5       30.15F
BEDFORD        SUNNY     74  66  76 SW3       30.12F
BLUE HILL        N/A     72  64  76 W6        30.14F
NORWOOD        SUNNY     74  65  73 SW6       30.13F
MARSHFIELD     SUNNY     73  66  78 W7        30.15F
PLYMOUTH       SUNNY     71  63  75 W5        30.15F
TAUNTON        SUNNY     74  65  73 VRB5      30.14F
NEW BEDFORD    SUNNY     73  66  78 W6        30.14F
$$

MAZALL-221400-
CAPE COD AND THE ISLANDS

CITY           SKY/WX    TMP DP  RH WIND       PRES   REMARKS
FALMOUTH         N/A     73  66  78 W8        30.16S
HYANNIS        SUNNY     74  65  73 S5        30.14F
CHATHAM        SUNNY     72  68  87 SW5       30.16F
PROVINCETOWN   SUNNY     70  64  83 CALM      30.15F
NANTUCKET      SUNNY     71  65  81 CALM      30.16F
MARTHAS VNYRD  SUNNY     72  66  81 SW6       30.16F
$$

MAZALL-221400-
CENTRAL AND WESTERN MASSACHUSETTS

CITY           SKY/WX    TMP DP  RH WIND       PRES   REMARKS
WORCESTER      SUNNY     73  64  73 W6        30.17F
FITCHBURG      SUNNY     77  64  64 W5        30.15F
ORANGE           N/A    N/A N/A N/A MISG      30.15F
SPRINGFIELD    SUNNY     73  65  77 S3        30.14F
WESTFIELD      SUNNY     72  64  76 S3        30.15F
NORTH ADAMS    MOSUNNY   71  64  78 CALM      30.16F
PITTSFIELD     SUNNY     70  64  81 CALM      30.17F
$$

RIZALL-221400-
RHODE ISLAND

CITY           SKY/WX    TMP DP  RH WIND       PRES   REMARKS
PROVIDENCE     MOSUNNY   76  65  68 W7        30.15F
NEWPORT        SUNNY     74  66  76 VRB5      30.15F
BLOCK ISLAND   SUNNY     73  64  73 W12       30.17F
SMITHFIELD     SUNNY     73  64  73 CALM      30.17F
WESTERLY       SUNNY     74  65  73 SW9       30.17S
$$

CTZALL-221400-
CONNECTICUT

CITY           SKY/WX    TMP DP  RH WIND       PRES   REMARKS
BRADLEY INTL   MOSUNNY   74  64  71 S3        30.15S
HARTFORD       SUNNY     74  65  73 VRB5      30.15F
BRIDGEPORT     SUNNY     75  66  73 SW8       30.17S
DANBURY        SUNNY     74  64  71 SW7       30.19S
GROTON         SUNNY     72  67  84 SW5       30.16S
NEW HAVEN      SUNNY     76  67  73 W5        30.16F
CHESTER        FAIR      73  66  78 W5        30.18S
MERIDEN        SUNNY     74  66  76 S5        30.16F
WILLIMANTIC    SUNNY     70  63  78 CALM      30.16F
OXFORD         SUNNY     72  64  78 VRB5      30.20S
$$

MEZ002-015-021-024-NHZ003-005-008-011-012-014-VTZ005-008-221400-
NORTHERN NEW ENGLAND

CITY           SKY/WX    TMP DP  RH WIND       PRES   REMARKS
PORTLAND ME    SUNNY     71  62  73 S5        30.11F
BANGOR ME      SUNNY     71  61  70 S6        30.09F
CONCORD NH     SUNNY     71  63  75 S3        30.13F
MANCHESTER NH  MOSUNNY   72  62  71 NW3       30.12F
NASHUA NH      SUNNY     73  63  71 CALM      30.14F
PORTSMOUTH NH  MOSUNNY   71  63  75 VRB3      30.11F
JAFFREY NH     SUNNY     72  63  73 VRB5      30.17F
KEENE NH       SUNNY     72  57  60 S5        30.16F
BURLINGTON VT  SUNNY     77  64  64 S15       30.12R
MT. WASHINGTON FOG       52  52 100 W26         N/A  VSB 0
$$

NYZ052-076-221400-
EASTERN NEW YORK

CITY           SKY/WX    TMP DP  RH WIND       PRES   REMARKS
ALBANY         SUNNY     75  66  73 S6        30.15F
NEW YORK CITY  MOSUNNY   79  64  60 CALM      30.17S
$$

ANZALL-221400-
MARINE OBSERVATIONS

STATION/POSITION TIME  TEMP    WIND        PRES    VSBY  WAVE
                       AIR SEA DIR/SP/G                  HT/PER
                 (UTC) (F)     (DEG/KT/KT) (MB)    (MI)  (FT/S)
BOSTON BUOY      NOT AVBL
BUZZARDS BAY     NOT AVBL
NANTUCKET SOUND  NOT AVBL
MASS BAY-STELLWA NOT AVBL
ISLE OF SHOALS   NOT AVBL
S OF BLOCK IS    NOT AVBL
$$

......................KEY.........................
  SKY/WX - SKY CONDITION/PRESENT WEATHER
  TMP    - TEMPERATURE IN FAHRENHEIT
  DWPT   - DEWPOINT IN FAHRENHEIT
  RH     - RELATIVE HUMIDITY IN PERCENT
  WIND   - DIRECTION AND SPEED IN MPH
  PRES   - MEAN SEA LEVEL PRESSURE IN INCHES OF HG
  WCI    - WIND CHILL INDEX
  VSB    - VISIBILITY IN MILES
  HX     - HEAT INDEX
  TC     - TEMPERATURE IN CELSIUS
  VRB    - VARIABLE WIND DIRECTION
  N/A    - NOT AVAILABLE


USA.gov is the U.S. government's official web portal to all federal, state and local government web resources and services.